TimeCST,TemperatureF,Dew PointF,Humidity,Sea Level PressureIn,VisibilityMPH,Wind Direction,Wind SpeedMPH,Gust SpeedMPH,PrecipitationIn,Events,Conditions,WindDirDegrees,DateUTC
12:13 AM,24.8,21.2,86,29.87,10.0,Calm,Calm,-,N/A,,Clear,0,2013-02-24 06:13:00
12:33 AM,24.8,21.2,86,29.88,10.0,Calm,Calm,-,N/A,,Clear,0,2013-02-24 06:33:00
12:53 AM,24.8,21.2,86,29.88,10.0,Calm,Calm,-,N/A,,Scattered Clouds,0,2013-02-24 06:53:00
1:13 AM,24.8,21.2,86,29.88,10.0,Calm,Calm,-,N/A,,Scattered Clouds,0,2013-02-24 07:13:00
1:33 AM,24.8,21.2,86,29.89,10.0,Calm,Calm,-,N/A,,Scattered Clouds,0,2013-02-24 07:33:00
1:53 AM,24.8,21.2,86,29.89,10.0,Calm,Calm,-,N/A,,Scattered Clouds,0,2013-02-24 07:53:00
2:13 AM,24.8,21.2,86,29.89,10.0,Calm,Calm,-,N/A,,Clear,0,2013-02-24 08:13:00
2:33 AM,24.8,21.2,86,29.90,10.0,Calm,Calm,-,N/A,,Clear,0,2013-02-24 08:33:00
2:53 AM,23.0,21.2,93,29.90,10.0,Calm,Calm,-,N/A,,Clear,0,2013-02-24 08:53:00
3:13 AM,23.0,19.4,86,29.90,10.0,Calm,Calm,-,N/A,,Clear,0,2013-02-24 09:13:00
3:33 AM,23.0,19.4,86,29.90,10.0,Calm,Calm,-,N/A,,Scattered Clouds,0,2013-02-24 09:33:00
3:53 AM,23.0,21.2,93,29.90,10.0,Calm,Calm,-,N/A,,Scattered Clouds,0,2013-02-24 09:53:00
4:13 AM,23.0,19.4,86,29.91,10.0,Calm,Calm,-,N/A,,Scattered Clouds,0,2013-02-24 10:13:00
4:33 AM,23.0,19.4,86,29.91,10.0,Calm,Calm,-,N/A,,Scattered Clouds,0,2013-02-24 10:33:00
4:53 AM,23.0,19.4,86,29.92,10.0,Calm,Calm,-,N/A,,Scattered Clouds,0,2013-02-24 10:53:00
5:13 AM,23.0,19.4,86,29.93,10.0,Calm,Calm,-,N/A,,Scattered Clouds,0,2013-02-24 11:13:00
5:33 AM,23.0,19.4,86,29.93,10.0,Calm,Calm,-,N/A,,Scattered Clouds,0,2013-02-24 11:33:00
5:53 AM,21.2,17.6,86,29.94,10.0,Calm,Calm,-,N/A,,Clear,0,2013-02-24 11:53:00
6:13 AM,21.2,17.6,86,29.94,10.0,Calm,Calm,-,N/A,,Clear,0,2013-02-24 12:13:00
6:33 AM,21.2,17.6,86,29.95,10.0,Calm,Calm,-,N/A,,Clear,0,2013-02-24 12:33:00
6:53 AM,19.4,15.8,86,29.96,10.0,Calm,Calm,-,N/A,,Clear,0,2013-02-24 12:53:00
7:13 AM,19.4,15.8,86,29.96,10.0,Calm,Calm,-,N/A,,Scattered Clouds,0,2013-02-24 13:13:00
7:33 AM,19.4,17.6,93,29.96,10.0,Calm,Calm,-,N/A,,Mostly Cloudy,0,2013-02-24 13:33:00
7:53 AM,21.2,17.6,86,29.96,10.0,Calm,Calm,-,N/A,,Overcast,0,2013-02-24 13:53:00
8:13 AM,21.2,19.4,93,29.97,10.0,Calm,Calm,-,N/A,,Overcast,0,2013-02-24 14:13:00
8:33 AM,24.8,21.2,86,29.97,10.0,Calm,Calm,-,N/A,,Overcast,0,2013-02-24 14:33:00
8:53 AM,24.8,21.2,86,29.98,10.0,Calm,Calm,-,N/A,,Overcast,0,2013-02-24 14:53:00
9:13 AM,26.6,21.2,80,29.98,10.0,Calm,Calm,-,N/A,,Overcast,0,2013-02-24 15:13:00
9:33 AM,28.4,21.2,74,29.99,10.0,Calm,Calm,-,N/A,,Mostly Cloudy,0,2013-02-24 15:33:00
9:53 AM,32.0,23.0,69,29.99,10.0,Calm,Calm,-,N/A,,Scattered Clouds,0,2013-02-24 15:53:00
10:13 AM,30.2,21.2,69,30.00,10.0,Calm,Calm,-,N/A,,Clear,0,2013-02-24 16:13:00
10:33 AM,32.0,21.2,64,30.00,10.0,Calm,Calm,-,N/A,,Clear,0,2013-02-24 16:33:00
10:53 AM,33.8,21.2,60,30.01,10.0,SSW,5.8,-,N/A,,Clear,210,2013-02-24 16:53:00
11:13 AM,33.8,21.2,60,30.00,10.0,Calm,Calm,-,N/A,,Clear,0,2013-02-24 17:13:00
11:33 AM,37.4,21.2,52,30.00,10.0,Calm,Calm,-,N/A,,Clear,0,2013-02-24 17:33:00
11:53 AM,37.4,21.2,52,30.00,10.0,SSW,3.5,-,N/A,,Unknown,210,2013-02-24 17:53:00
12:13 PM,35.6,21.2,56,30.00,10.0,Calm,Calm,-,N/A,,Clear,0,2013-02-24 18:13:00
12:33 PM,39.2,21.2,49,30.00,10.0,Calm,Calm,-,N/A,,Clear,0,2013-02-24 18:33:00
12:53 PM,35.6,21.2,56,30.00,10.0,South,4.6,-,N/A,,Clear,180,2013-02-24 18:53:00
1:13 PM,37.4,21.2,52,29.99,10.0,SSE,3.5,-,N/A,,Clear,160,2013-02-24 19:13:00
1:33 PM,37.4,19.4,48,29.99,10.0,South,6.9,-,N/A,,Clear,180,2013-02-24 19:33:00
1:53 PM,35.6,19.4,52,29.99,10.0,South,8.1,-,N/A,,Clear,180,2013-02-24 19:53:00
2:13 PM,35.6,19.4,52,29.99,10.0,South,8.1,-,N/A,,Clear,170,2013-02-24 20:13:00
2:33 PM,35.6,19.4,52,29.99,10.0,South,10.4,-,N/A,,Clear,190,2013-02-24 20:33:00
2:53 PM,35.6,19.4,52,29.99,10.0,South,6.9,-,N/A,,Clear,180,2013-02-24 20:53:00
3:13 PM,33.8,19.4,56,29.99,10.0,South,6.9,-,N/A,,Clear,170,2013-02-24 21:13:00
3:33 PM,33.8,19.4,56,29.99,10.0,South,6.9,-,N/A,,Clear,180,2013-02-24 21:33:00
3:53 PM,33.8,19.4,56,30.00,10.0,South,8.1,-,N/A,,Clear,190,2013-02-24 21:53:00
4:13 PM,33.8,19.4,56,30.00,10.0,South,6.9,-,N/A,,Clear,170,2013-02-24 22:13:00
4:33 PM,32.0,21.2,64,30.00,10.0,SSE,5.8,-,N/A,,Clear,160,2013-02-24 22:33:00
4:53 PM,30.2,19.4,64,30.00,10.0,South,3.5,-,N/A,,Clear,170,2013-02-24 22:53:00
5:13 PM,28.4,19.4,69,30.00,10.0,Calm,Calm,-,N/A,,Clear,0,2013-02-24 23:13:00
5:33 PM,26.6,21.2,80,30.00,10.0,Calm,Calm,-,N/A,,Clear,0,2013-02-24 23:33:00
5:53 PM,24.8,17.6,74,30.00,10.0,Calm,Calm,-,N/A,,Clear,0,2013-02-24 23:53:00
6:13 PM,23.0,19.4,86,30.00,10.0,Calm,Calm,-,N/A,,Clear,0,2013-02-25 00:13:00
6:33 PM,23.0,19.4,86,30.00,10.0,Calm,Calm,-,N/A,,Clear,0,2013-02-25 00:33:00
6:53 PM,23.0,17.6,80,30.01,10.0,Calm,Calm,-,N/A,,Clear,0,2013-02-25 00:53:00
7:13 PM,19.4,15.8,86,30.01,10.0,Calm,Calm,-,N/A,,Clear,0,2013-02-25 01:13:00
7:33 PM,19.4,15.8,86,30.02,10.0,Calm,Calm,-,N/A,,Clear,0,2013-02-25 01:33:00
7:53 PM,19.4,15.8,86,30.02,10.0,Calm,Calm,-,N/A,,Clear,0,2013-02-25 01:53:00
8:13 PM,17.6,15.8,93,30.02,10.0,Calm,Calm,-,N/A,,Clear,0,2013-02-25 02:13:00
8:33 PM,17.6,14.0,86,30.02,10.0,Calm,Calm,-,N/A,,Clear,0,2013-02-25 02:33:00
8:53 PM,17.6,14.0,86,30.02,10.0,Calm,Calm,-,N/A,,Clear,0,2013-02-25 02:53:00
9:13 PM,15.8,12.2,86,30.02,10.0,Calm,Calm,-,N/A,,Clear,0,2013-02-25 03:13:00
9:33 PM,15.8,12.2,86,30.02,10.0,Calm,Calm,-,N/A,,Clear,0,2013-02-25 03:33:00
9:53 PM,15.8,12.2,86,30.02,10.0,Calm,Calm,-,N/A,,Clear,0,2013-02-25 03:53:00
10:13 PM,15.8,12.2,86,30.02,10.0,Calm,Calm,-,N/A,,Clear,0,2013-02-25 04:13:00
10:33 PM,15.8,10.4,79,30.02,10.0,Calm,Calm,-,N/A,,Clear,0,2013-02-25 04:33:00
10:53 PM,14.0,10.4,86,30.02,10.0,Calm,Calm,-,N/A,,Clear,0,2013-02-25 04:53:00
11:13 PM,12.2,8.6,85,30.02,10.0,Calm,Calm,-,N/A,,Clear,0,2013-02-25 05:13:00
11:33 PM,12.2,8.6,85,30.02,10.0,Calm,Calm,-,N/A,,Clear,0,2013-02-25 05:33:00
11:53 PM,12.2,8.6,85,30.02,10.0,Calm,Calm,-,N/A,,Clear,0,2013-02-25 05:53:00